Year,Month,Day,Hour,Minute,Value (Times are PST for temperature in C)
2020,08,17,00,00,25.30
2020,08,17,00,01,25.20
2020,08,17,00,02,25.20
2020,08,17,00,03,25.10
2020,08,17,00,04,25.10
2020,08,17,00,05,25.10
2020,08,17,00,06,25.00
2020,08,17,00,07,25.00
2020,08,17,00,08,25.10
2020,08,17,00,09,25.10
2020,08,17,00,10,25.10
2020,08,17,00,11,25.10
2020,08,17,00,12,25.10
2020,08,17,00,13,25.10
2020,08,17,00,14,25.10
2020,08,17,00,15,25.10
2020,08,17,00,16,25.10
2020,08,17,00,17,25.10
2020,08,17,00,18,25.10
2020,08,17,00,19,25.10
2020,08,17,00,20,25.10
2020,08,17,00,21,25.10
2020,08,17,00,22,25.10
2020,08,17,00,23,25.20
2020,08,17,00,24,25.20
2020,08,17,00,25,25.30
2020,08,17,00,26,25.30
2020,08,17,00,27,25.30
2020,08,17,00,28,25.30
2020,08,17,00,29,25.30
2020,08,17,00,30,25.30
2020,08,17,00,31,25.20
2020,08,17,00,32,25.20
2020,08,17,00,33,25.20
2020,08,17,00,34,25.20
2020,08,17,00,35,25.20
2020,08,17,00,36,25.30
2020,08,17,00,37,25.30
2020,08,17,00,38,25.20
2020,08,17,00,39,25.30
2020,08,17,00,40,25.30
2020,08,17,00,41,25.30
2020,08,17,00,42,25.30
2020,08,17,00,43,25.30
2020,08,17,00,44,25.40
2020,08,17,00,45,25.50
2020,08,17,00,46,25.60
2020,08,17,00,47,25.60
2020,08,17,00,48,25.60
2020,08,17,00,49,25.50
2020,08,17,00,50,25.40
2020,08,17,00,51,25.30
2020,08,17,00,52,25.20
2020,08,17,00,53,25.10
2020,08,17,00,54,25.00
2020,08,17,00,55,24.90
2020,08,17,00,56,24.80
2020,08,17,00,57,24.60
2020,08,17,00,58,24.40
2020,08,17,00,59,24.20
2020,08,17,01,00,23.90
2020,08,17,01,01,23.60
2020,08,17,01,02,23.30
2020,08,17,01,03,23.10
2020,08,17,01,04,22.80
2020,08,17,01,05,22.50
2020,08,17,01,06,22.30
2020,08,17,01,07,22.00
2020,08,17,01,08,21.80
2020,08,17,01,09,21.70
2020,08,17,01,10,21.50
2020,08,17,01,11,21.40
2020,08,17,01,12,21.30
2020,08,17,01,13,21.20
2020,08,17,01,14,21.10
2020,08,17,01,15,21.10
2020,08,17,01,16,21.20
2020,08,17,01,17,21.20
2020,08,17,01,18,21.20
2020,08,17,01,19,21.20
2020,08,17,01,20,21.20
2020,08,17,01,21,21.20
2020,08,17,01,22,21.10
2020,08,17,01,23,21.10
2020,08,17,01,24,21.10
2020,08,17,01,25,21.00
2020,08,17,01,26,21.00
2020,08,17,01,27,20.90
2020,08,17,01,28,20.90
2020,08,17,01,29,20.80
2020,08,17,01,30,20.80
2020,08,17,01,31,20.70
2020,08,17,01,32,20.70
2020,08,17,01,33,20.80
2020,08,17,01,34,20.80
2020,08,17,01,35,20.90
2020,08,17,01,36,20.90
2020,08,17,01,37,20.90
2020,08,17,01,38,20.90
2020,08,17,01,39,20.90
2020,08,17,01,40,20.90
2020,08,17,01,41,20.90
2020,08,17,01,42,20.90
2020,08,17,01,43,20.80
2020,08,17,01,44,20.80
2020,08,17,01,45,20.80
2020,08,17,01,46,20.80
2020,08,17,01,47,20.70
2020,08,17,01,48,20.70
2020,08,17,01,49,20.60
2020,08,17,01,50,20.60
2020,08,17,01,51,20.60
2020,08,17,01,52,20.50
2020,08,17,01,53,20.50
2020,08,17,01,54,20.50
2020,08,17,01,55,20.50
2020,08,17,01,56,20.50
2020,08,17,01,57,20.50
2020,08,17,01,58,20.50
2020,08,17,01,59,20.60
2020,08,17,02,00,20.60
2020,08,17,02,01,20.70
2020,08,17,02,02,20.70
2020,08,17,02,03,20.70
2020,08,17,02,04,20.70
2020,08,17,02,05,20.80
2020,08,17,02,06,20.80
2020,08,17,02,07,20.80
2020,08,17,02,08,20.80
2020,08,17,02,09,20.80
2020,08,17,02,10,20.80
2020,08,17,02,11,20.80
2020,08,17,02,12,20.80
2020,08,17,02,13,20.80
2020,08,17,02,14,20.80
2020,08,17,02,15,20.80
2020,08,17,02,16,20.90
2020,08,17,02,17,20.90
2020,08,17,02,18,20.90
2020,08,17,02,19,20.90
2020,08,17,02,20,20.90
2020,08,17,02,21,20.90
2020,08,17,02,22,20.90
2020,08,17,02,23,20.90
2020,08,17,02,24,20.80
2020,08,17,02,25,20.80
2020,08,17,02,26,20.80
2020,08,17,02,27,20.80
2020,08,17,02,28,20.80
2020,08,17,02,29,20.80
2020,08,17,02,30,20.70
2020,08,17,02,31,20.70
2020,08,17,02,32,20.70
2020,08,17,02,33,20.70
2020,08,17,02,34,20.70
2020,08,17,02,35,20.60
2020,08,17,02,36,20.60
2020,08,17,02,37,20.60
2020,08,17,02,38,20.60
2020,08,17,02,39,20.60
2020,08,17,02,40,20.60
2020,08,17,02,41,20.70
2020,08,17,02,42,20.70
2020,08,17,02,43,20.70
2020,08,17,02,44,20.70
2020,08,17,02,45,20.80
2020,08,17,02,46,20.90
2020,08,17,02,47,20.90
2020,08,17,02,48,20.90
2020,08,17,02,49,20.90
2020,08,17,02,50,20.90
2020,08,17,02,51,20.90
2020,08,17,02,52,20.90
2020,08,17,02,53,21.00
2020,08,17,02,54,21.20
2020,08,17,02,55,21.30
2020,08,17,02,56,21.40
2020,08,17,02,57,21.40
2020,08,17,02,58,21.50
2020,08,17,02,59,21.60
2020,08,17,03,00,21.70
2020,08,17,03,01,21.80
2020,08,17,03,02,21.80
2020,08,17,03,03,21.90
2020,08,17,03,04,21.90
2020,08,17,03,05,21.90
2020,08,17,03,06,21.90
2020,08,17,03,07,21.90
2020,08,17,03,08,21.90
2020,08,17,03,09,22.10
2020,08,17,03,10,22.20
2020,08,17,03,11,22.30
2020,08,17,03,12,22.40
2020,08,17,03,13,22.40
2020,08,17,03,14,22.50
2020,08,17,03,15,22.70
2020,08,17,03,16,22.80
2020,08,17,03,17,22.90
2020,08,17,03,18,23.00
2020,08,17,03,19,23.10
2020,08,17,03,20,23.10
2020,08,17,03,21,23.10
2020,08,17,03,22,23.20
2020,08,17,03,23,23.30
2020,08,17,03,24,23.50
2020,08,17,03,25,23.60
2020,08,17,03,26,23.60
2020,08,17,03,27,23.60
2020,08,17,03,28,23.60
2020,08,17,03,29,23.70
2020,08,17,03,30,23.70
2020,08,17,03,31,23.80
2020,08,17,03,32,23.80
2020,08,17,03,33,23.80
2020,08,17,03,34,23.80
2020,08,17,03,35,23.80
2020,08,17,03,36,23.90
2020,08,17,03,37,23.90
2020,08,17,03,38,23.90
2020,08,17,03,39,23.90
2020,08,17,03,40,24.00
2020,08,17,03,41,24.00
2020,08,17,03,42,24.10
2020,08,17,03,43,24.10
2020,08,17,03,44,24.20
2020,08,17,03,45,24.20
2020,08,17,03,46,24.30
2020,08,17,03,47,24.30
2020,08,17,03,48,24.30
2020,08,17,03,49,24.30
2020,08,17,03,50,24.40
2020,08,17,03,51,24.40
2020,08,17,03,52,24.50
2020,08,17,03,53,24.60
2020,08,17,03,54,24.60
2020,08,17,03,55,24.60
2020,08,17,03,56,24.50
2020,08,17,03,57,24.50
2020,08,17,03,58,24.50
2020,08,17,03,59,24.40
2020,08,17,04,00,24.40
2020,08,17,04,01,24.40
2020,08,17,04,02,24.40
2020,08,17,04,03,24.40
2020,08,17,04,04,24.30
2020,08,17,04,05,24.30
2020,08,17,04,06,24.20
2020,08,17,04,07,24.20
2020,08,17,04,08,24.20
2020,08,17,04,09,24.10
2020,08,17,04,10,24.10
2020,08,17,04,11,24.00
2020,08,17,04,12,23.90
2020,08,17,04,13,23.80
2020,08,17,04,14,23.70
2020,08,17,04,15,23.50
2020,08,17,04,16,23.40
2020,08,17,04,17,23.20
2020,08,17,04,18,23.00
2020,08,17,04,19,22.80
2020,08,17,04,20,22.60
2020,08,17,04,21,22.40
2020,08,17,04,22,22.10
2020,08,17,04,23,22.00
2020,08,17,04,24,21.80
2020,08,17,04,25,21.60
2020,08,17,04,26,21.50
2020,08,17,04,27,21.30
2020,08,17,04,28,21.20
2020,08,17,04,29,21.10
2020,08,17,04,30,21.00
2020,08,17,04,31,20.90
2020,08,17,04,32,20.90
2020,08,17,04,33,20.80
2020,08,17,04,34,20.80
2020,08,17,04,35,20.70
2020,08,17,04,36,20.70
2020,08,17,04,37,20.70
2020,08,17,04,38,20.60
2020,08,17,04,39,20.60
2020,08,17,04,40,20.50
2020,08,17,04,41,20.50
2020,08,17,04,42,20.50
2020,08,17,04,43,20.50
2020,08,17,04,44,20.50
2020,08,17,04,45,20.50
2020,08,17,04,46,20.50
2020,08,17,04,47,20.60
2020,08,17,04,48,20.60
2020,08,17,04,49,20.60
2020,08,17,04,50,20.70
2020,08,17,04,51,20.70
2020,08,17,04,52,20.80
2020,08,17,04,53,20.90
2020,08,17,04,54,21.00
2020,08,17,04,55,21.20
2020,08,17,04,56,21.40
2020,08,17,04,57,21.50
2020,08,17,04,58,21.70
2020,08,17,04,59,21.80
2020,08,17,05,00,22.00
2020,08,17,05,01,22.10
2020,08,17,05,02,22.20
2020,08,17,05,03,22.30
2020,08,17,05,04,22.40
2020,08,17,05,05,22.50
2020,08,17,05,06,22.50
2020,08,17,05,07,22.60
2020,08,17,05,08,22.80
2020,08,17,05,09,22.90
2020,08,17,05,10,23.00
2020,08,17,05,11,23.10
2020,08,17,05,12,23.10
2020,08,17,05,13,23.10
2020,08,17,05,14,23.20
2020,08,17,05,15,23.20
2020,08,17,05,16,23.30
2020,08,17,05,17,23.30
2020,08,17,05,18,23.30
2020,08,17,05,19,23.20
2020,08,17,05,20,23.20
2020,08,17,05,21,23.30
2020,08,17,05,22,23.20
2020,08,17,05,23,23.20
2020,08,17,05,24,23.20
2020,08,17,05,25,23.10
2020,08,17,05,26,23.20
2020,08,17,05,27,23.20
2020,08,17,05,28,23.20
2020,08,17,05,29,23.30
2020,08,17,05,30,23.30
2020,08,17,05,31,23.30
2020,08,17,05,32,23.30
2020,08,17,05,33,23.30
2020,08,17,05,34,23.30
2020,08,17,05,35,23.30
2020,08,17,05,36,23.30
2020,08,17,05,37,23.30
2020,08,17,05,38,23.30
2020,08,17,05,39,23.30
2020,08,17,05,40,23.30
2020,08,17,05,41,23.20
2020,08,17,05,42,23.20
2020,08,17,05,43,23.20
2020,08,17,05,44,23.20
2020,08,17,05,45,23.10
2020,08,17,05,46,23.10
2020,08,17,05,47,23.10
2020,08,17,05,48,23.00
2020,08,17,05,49,23.00
2020,08,17,05,50,23.00
2020,08,17,05,51,23.10
2020,08,17,05,52,23.10
2020,08,17,05,53,23.10
2020,08,17,05,54,23.00
2020,08,17,05,55,23.00
2020,08,17,05,56,23.00
2020,08,17,05,57,23.00
2020,08,17,05,58,23.00
2020,08,17,05,59,23.00
2020,08,17,06,00,22.90
2020,08,17,06,01,22.90
2020,08,17,06,02,22.80
2020,08,17,06,03,22.90
2020,08,17,06,04,23.00
2020,08,17,06,05,23.00
2020,08,17,06,06,23.10
2020,08,17,06,07,23.10
2020,08,17,06,08,23.20
2020,08,17,06,09,23.20
2020,08,17,06,10,23.20
2020,08,17,06,11,23.20
2020,08,17,06,12,23.10
2020,08,17,06,13,23.10
2020,08,17,06,14,23.20
2020,08,17,06,15,23.20
2020,08,17,06,16,23.10
2020,08,17,06,17,23.10
2020,08,17,06,18,23.10
2020,08,17,06,19,23.10
2020,08,17,06,20,23.10
2020,08,17,06,21,23.00
2020,08,17,06,22,23.00
2020,08,17,06,23,23.00
2020,08,17,06,24,22.90
2020,08,17,06,25,22.90
2020,08,17,06,26,22.90
2020,08,17,06,27,22.80
2020,08,17,06,28,22.80
2020,08,17,06,29,22.80
2020,08,17,06,30,22.80
2020,08,17,06,31,22.80
2020,08,17,06,32,22.80
2020,08,17,06,33,22.80
2020,08,17,06,34,22.80
2020,08,17,06,35,22.80
2020,08,17,06,36,22.70
2020,08,17,06,37,22.70
2020,08,17,06,38,22.70
2020,08,17,06,39,22.70
2020,08,17,06,40,22.70
2020,08,17,06,41,22.70
2020,08,17,06,42,22.60
2020,08,17,06,43,22.60
2020,08,17,06,44,22.50
2020,08,17,06,45,22.40
2020,08,17,06,46,22.30
2020,08,17,06,47,22.20
2020,08,17,06,48,22.20
2020,08,17,06,49,22.10
2020,08,17,06,50,21.90
2020,08,17,06,51,21.80
2020,08,17,06,52,21.70
2020,08,17,06,53,21.60
2020,08,17,06,54,21.50
2020,08,17,06,55,21.50
2020,08,17,06,56,21.40
2020,08,17,06,57,21.30
2020,08,17,06,58,21.30
2020,08,17,06,59,21.20
2020,08,17,07,00,21.20
2020,08,17,07,01,21.20
2020,08,17,07,02,21.10
2020,08,17,07,03,21.10
2020,08,17,07,04,21.10
2020,08,17,07,05,21.00
2020,08,17,07,06,21.00
2020,08,17,07,07,21.00
2020,08,17,07,08,20.90
2020,08,17,07,09,20.90
2020,08,17,07,10,20.80
2020,08,17,07,11,20.80
2020,08,17,07,12,20.80
2020,08,17,07,13,20.80
2020,08,17,07,14,20.70
2020,08,17,07,15,20.70
2020,08,17,07,16,20.70
2020,08,17,07,17,20.60
2020,08,17,07,18,20.60
2020,08,17,07,19,20.60
2020,08,17,07,20,20.70
2020,08,17,07,21,20.70
2020,08,17,07,22,20.80
2020,08,17,07,23,20.80
2020,08,17,07,24,20.80
2020,08,17,07,25,20.80
2020,08,17,07,26,20.80
2020,08,17,07,27,20.90
2020,08,17,07,28,20.90
2020,08,17,07,29,20.90
2020,08,17,07,30,20.90
2020,08,17,07,31,20.90
2020,08,17,07,32,20.90
2020,08,17,07,33,20.90
2020,08,17,07,34,20.90
2020,08,17,07,35,20.90
2020,08,17,07,36,20.90
2020,08,17,07,37,20.90
2020,08,17,07,38,21.00
2020,08,17,07,39,21.10
2020,08,17,07,40,21.10
2020,08,17,07,41,21.10
2020,08,17,07,42,21.10
2020,08,17,07,43,21.20
2020,08,17,07,44,21.20
2020,08,17,07,45,21.30
2020,08,17,07,46,21.30
2020,08,17,07,47,21.30
2020,08,17,07,48,21.30
2020,08,17,07,49,21.30
2020,08,17,07,50,21.30
2020,08,17,07,51,21.30
2020,08,17,07,52,21.30
2020,08,17,07,53,21.30
2020,08,17,07,54,21.30
2020,08,17,07,55,21.30
2020,08,17,07,56,21.30
2020,08,17,07,57,21.30
2020,08,17,07,58,21.40
2020,08,17,07,59,21.40
2020,08,17,08,00,21.40
2020,08,17,08,01,21.40
2020,08,17,08,02,21.50
2020,08,17,08,03,21.50
2020,08,17,08,04,21.60
2020,08,17,08,05,21.60
2020,08,17,08,06,21.60
2020,08,17,08,07,21.60
2020,08,17,08,08,21.60
2020,08,17,08,09,21.70
2020,08,17,08,10,21.70
2020,08,17,08,11,21.70
2020,08,17,08,12,21.70
2020,08,17,08,13,21.80
2020,08,17,08,14,21.80
2020,08,17,08,15,21.80
2020,08,17,08,16,21.90
2020,08,17,08,17,21.90
2020,08,17,08,18,21.90
2020,08,17,08,19,21.90
2020,08,17,08,20,22.00
2020,08,17,08,21,22.00
2020,08,17,08,22,22.00
2020,08,17,08,23,22.00
2020,08,17,08,24,22.10
2020,08,17,08,25,22.10
2020,08,17,08,26,22.10
2020,08,17,08,27,22.20
2020,08,17,08,28,22.20
2020,08,17,08,29,22.20
2020,08,17,08,30,22.30
2020,08,17,08,31,22.30
2020,08,17,08,32,22.40
2020,08,17,08,33,22.40
2020,08,17,08,34,22.40
2020,08,17,08,35,22.50
2020,08,17,08,36,22.60
2020,08,17,08,37,22.60
2020,08,17,08,38,22.60
2020,08,17,08,39,22.70
2020,08,17,08,40,22.70
2020,08,17,08,41,22.70
2020,08,17,08,42,22.70
2020,08,17,08,43,22.80
2020,08,17,08,44,22.80
2020,08,17,08,45,22.80
2020,08,17,08,46,22.90
2020,08,17,08,47,22.90
2020,08,17,08,48,22.90
2020,08,17,08,49,22.90
2020,08,17,08,50,22.90
2020,08,17,08,51,22.80
2020,08,17,08,52,22.80
2020,08,17,08,53,22.80
2020,08,17,08,54,22.70
2020,08,17,08,55,22.70
2020,08,17,08,56,22.70
2020,08,17,08,57,22.70
2020,08,17,08,58,22.70
2020,08,17,08,59,22.80
2020,08,17,09,00,22.80
2020,08,17,09,01,22.90
2020,08,17,09,02,23.00
2020,08,17,09,03,23.00
2020,08,17,09,04,23.00
2020,08,17,09,05,23.10
2020,08,17,09,06,23.10
2020,08,17,09,07,23.10
2020,08,17,09,08,23.10
2020,08,17,09,09,23.10
2020,08,17,09,10,23.10
2020,08,17,09,11,23.10
2020,08,17,09,12,23.20
2020,08,17,09,13,23.20
2020,08,17,09,14,23.20
2020,08,17,09,15,23.20
2020,08,17,09,16,23.20
2020,08,17,09,17,23.20
2020,08,17,09,18,23.30
2020,08,17,09,19,23.30
2020,08,17,09,20,23.30
2020,08,17,09,21,23.30
2020,08,17,09,22,23.30
2020,08,17,09,23,23.40
2020,08,17,09,24,23.40
2020,08,17,09,25,23.30
2020,08,17,09,26,23.40
2020,08,17,09,27,23.50
2020,08,17,09,28,23.50
2020,08,17,09,29,23.60
2020,08,17,09,30,23.70
2020,08,17,09,31,23.70
2020,08,17,09,32,23.70
2020,08,17,09,33,23.70
2020,08,17,09,34,23.70
2020,08,17,09,35,23.70
2020,08,17,09,36,23.80
2020,08,17,09,37,23.80
2020,08,17,09,38,23.80
2020,08,17,09,39,23.80
2020,08,17,09,40,23.80
2020,08,17,09,41,23.80
2020,08,17,09,42,23.80
2020,08,17,09,43,23.90
2020,08,17,09,44,23.90
2020,08,17,09,45,24.00
2020,08,17,09,46,24.00
2020,08,17,09,47,24.10
2020,08,17,09,48,24.10
2020,08,17,09,49,24.10
2020,08,17,09,50,24.20
2020,08,17,09,51,24.10
2020,08,17,09,52,24.10
2020,08,17,09,53,24.00
2020,08,17,09,54,24.00
2020,08,17,09,55,24.00
2020,08,17,09,56,24.10
2020,08,17,09,57,24.20
2020,08,17,09,58,24.30
2020,08,17,09,59,24.30
2020,08,17,10,00,24.20
2020,08,17,10,01,24.20
2020,08,17,10,02,24.30
2020,08,17,10,03,24.30
2020,08,17,10,04,24.40
2020,08,17,10,05,24.60
2020,08,17,10,06,24.70
2020,08,17,10,07,24.70
2020,08,17,10,08,24.60
2020,08,17,10,09,24.50
2020,08,17,10,10,24.50
2020,08,17,10,11,24.50
2020,08,17,10,12,24.60
2020,08,17,10,13,24.60
2020,08,17,10,14,24.60
2020,08,17,10,15,24.60
2020,08,17,10,16,24.70
2020,08,17,10,17,24.70
2020,08,17,10,18,24.80
2020,08,17,10,19,24.80
2020,08,17,10,20,24.70
2020,08,17,10,21,24.70
2020,08,17,10,22,24.80
2020,08,17,10,23,24.90
2020,08,17,10,24,24.90
2020,08,17,10,25,24.90
2020,08,17,10,26,25.00
2020,08,17,10,27,25.00
2020,08,17,10,28,24.90
2020,08,17,10,29,24.90
2020,08,17,10,30,24.90
2020,08,17,10,31,24.90
2020,08,17,10,32,25.00
2020,08,17,10,33,25.00
2020,08,17,10,34,25.10
2020,08,17,10,35,25.10
2020,08,17,10,36,25.10
2020,08,17,10,37,25.20
2020,08,17,10,38,25.20
2020,08,17,10,39,25.30
2020,08,17,10,40,25.30
2020,08,17,10,41,25.40
2020,08,17,10,42,25.40
2020,08,17,10,43,25.50
2020,08,17,10,44,25.50
2020,08,17,10,45,25.40
2020,08,17,10,46,25.30
2020,08,17,10,47,25.30
2020,08,17,10,48,25.30
2020,08,17,10,49,25.30
2020,08,17,10,50,25.20
2020,08,17,10,51,25.20
2020,08,17,10,52,25.20
2020,08,17,10,53,25.10
2020,08,17,10,54,25.00
2020,08,17,10,55,25.00
2020,08,17,10,56,25.10
2020,08,17,10,57,25.10
2020,08,17,10,58,25.10
2020,08,17,10,59,25.10
2020,08,17,11,00,25.20
2020,08,17,11,01,25.40
2020,08,17,11,02,25.50
2020,08,17,11,03,25.70
2020,08,17,11,04,25.80
2020,08,17,11,05,25.90
2020,08,17,11,06,26.10
2020,08,17,11,07,26.10
2020,08,17,11,08,26.00
2020,08,17,11,09,25.80
2020,08,17,11,10,25.80
2020,08,17,11,11,25.90
2020,08,17,11,12,26.00
2020,08,17,11,13,26.10
2020,08,17,11,14,26.20
2020,08,17,11,15,26.30
2020,08,17,11,16,26.30
2020,08,17,11,17,26.20
2020,08,17,11,18,26.30
2020,08,17,11,19,26.30
2020,08,17,11,20,26.30
2020,08,17,11,21,26.20
2020,08,17,11,22,26.30
2020,08,17,11,23,26.40
2020,08,17,11,24,26.40
2020,08,17,11,25,26.50
2020,08,17,11,26,26.60
2020,08,17,11,27,26.80
2020,08,17,11,28,26.90
2020,08,17,11,29,26.90
2020,08,17,11,30,26.90
2020,08,17,11,31,26.80
2020,08,17,11,32,26.80
2020,08,17,11,33,26.80
2020,08,17,11,34,26.90
2020,08,17,11,35,26.90
2020,08,17,11,36,26.90
2020,08,17,11,37,26.70
2020,08,17,11,38,26.60
2020,08,17,11,39,26.60
2020,08,17,11,40,26.50
2020,08,17,11,41,26.50
2020,08,17,11,42,26.40
2020,08,17,11,43,26.40
2020,08,17,11,44,26.50
2020,08,17,11,45,26.60
2020,08,17,11,46,26.60
2020,08,17,11,47,26.60
2020,08,17,11,48,26.50
2020,08,17,11,49,26.40
2020,08,17,11,50,26.40
2020,08,17,11,51,26.50
2020,08,17,11,52,26.50
2020,08,17,11,53,26.60
2020,08,17,11,54,26.60
2020,08,17,11,55,26.80
2020,08,17,11,56,26.90
2020,08,17,11,57,27.00
2020,08,17,11,58,27.20
2020,08,17,11,59,27.20
2020,08,17,12,00,27.20
2020,08,17,12,01,27.00
2020,08,17,12,02,26.80
2020,08,17,12,03,26.50
2020,08,17,12,04,26.40
2020,08,17,12,05,26.30
2020,08,17,12,06,26.20
2020,08,17,12,07,26.20
2020,08,17,12,08,26.10
2020,08,17,12,09,26.10
2020,08,17,12,10,26.10
2020,08,17,12,11,26.10
2020,08,17,12,12,26.20
2020,08,17,12,13,26.30
2020,08,17,12,14,26.40
2020,08,17,12,15,26.60
2020,08,17,12,16,26.80
2020,08,17,12,17,26.90
2020,08,17,12,18,27.00
2020,08,17,12,19,26.90
2020,08,17,12,20,26.90
2020,08,17,12,21,26.80
2020,08,17,12,22,26.90
2020,08,17,12,23,26.90
2020,08,17,12,24,27.00
2020,08,17,12,25,27.00
2020,08,17,12,26,26.90
2020,08,17,12,27,26.60
2020,08,17,12,28,26.40
2020,08,17,12,29,26.40
2020,08,17,12,30,26.40
2020,08,17,12,31,26.40
2020,08,17,12,32,26.40
2020,08,17,12,33,26.40
2020,08,17,12,34,26.30
2020,08,17,12,35,26.30
2020,08,17,12,36,26.40
2020,08,17,12,37,26.40
2020,08,17,12,38,26.60
2020,08,17,12,39,26.60
2020,08,17,12,40,26.60
2020,08,17,12,41,26.60
2020,08,17,12,42,26.50
2020,08,17,12,43,26.50
2020,08,17,12,44,26.40
2020,08,17,12,45,26.30
2020,08,17,12,46,26.10
2020,08,17,12,47,25.90
2020,08,17,12,48,25.90
2020,08,17,12,49,25.80
2020,08,17,12,50,25.80
2020,08,17,12,51,25.70
2020,08,17,12,52,25.70
2020,08,17,12,53,25.60
2020,08,17,12,54,25.50
2020,08,17,12,55,25.40
2020,08,17,12,56,25.40
2020,08,17,12,57,25.40
2020,08,17,12,58,25.30
2020,08,17,12,59,25.30
2020,08,17,13,00,25.30
2020,08,17,13,01,25.40
2020,08,17,13,02,25.50
2020,08,17,13,03,25.70
2020,08,17,13,04,25.70
2020,08,17,13,05,25.80
2020,08,17,13,06,25.90
2020,08,17,13,07,26.10
2020,08,17,13,08,26.20
2020,08,17,13,09,26.40
2020,08,17,13,10,26.60
2020,08,17,13,11,26.70
2020,08,17,13,12,26.70
2020,08,17,13,13,26.80
2020,08,17,13,14,26.80
2020,08,17,13,15,26.80
2020,08,17,13,16,26.80
2020,08,17,13,17,26.80
2020,08,17,13,18,26.80
2020,08,17,13,19,26.80
2020,08,17,13,20,26.90
2020,08,17,13,21,26.90
2020,08,17,13,22,26.80
2020,08,17,13,23,26.70
2020,08,17,13,24,26.50
2020,08,17,13,25,26.40
2020,08,17,13,26,26.30
2020,08,17,13,27,26.30
2020,08,17,13,28,26.30
2020,08,17,13,29,26.50
2020,08,17,13,30,26.60
2020,08,17,13,31,26.60
2020,08,17,13,32,26.80
2020,08,17,13,33,26.80
2020,08,17,13,34,26.90
2020,08,17,13,35,26.90
2020,08,17,13,36,26.90
2020,08,17,13,37,27.00
2020,08,17,13,38,27.00
2020,08,17,13,39,27.10
2020,08,17,13,40,27.10
2020,08,17,13,41,27.00
2020,08,17,13,42,27.00
2020,08,17,13,43,26.90
2020,08,17,13,44,26.90
2020,08,17,13,45,27.00
2020,08,17,13,46,27.00
2020,08,17,13,47,27.00
2020,08,17,13,48,27.10
2020,08,17,13,49,27.30
2020,08,17,13,50,27.60
2020,08,17,13,51,27.70
2020,08,17,13,52,27.90
2020,08,17,13,53,28.00
2020,08,17,13,54,27.90
2020,08,17,13,55,27.90
2020,08,17,13,56,27.90
2020,08,17,13,57,27.90
2020,08,17,13,58,27.70
2020,08,17,13,59,27.60
2020,08,17,14,00,27.40
2020,08,17,14,01,27.20
2020,08,17,14,02,27.10
2020,08,17,14,03,27.00
2020,08,17,14,04,26.90
2020,08,17,14,05,27.10
2020,08,17,14,06,27.20
2020,08,17,14,07,27.20
2020,08,17,14,08,27.00
2020,08,17,14,09,26.90
2020,08,17,14,10,26.90
2020,08,17,14,11,26.90
2020,08,17,14,12,26.90
2020,08,17,14,13,26.80
2020,08,17,14,14,26.70
2020,08,17,14,15,26.60
2020,08,17,14,16,26.60
2020,08,17,14,17,26.50
2020,08,17,14,18,26.60
2020,08,17,14,19,26.60
2020,08,17,14,20,26.80
2020,08,17,14,21,26.90
2020,08,17,14,22,27.00
2020,08,17,14,23,27.00
2020,08,17,14,24,26.90
2020,08,17,14,25,26.90
2020,08,17,14,26,26.90
2020,08,17,14,27,27.00
2020,08,17,14,28,27.10
2020,08,17,14,29,27.30
2020,08,17,14,30,27.40
2020,08,17,14,31,27.40
2020,08,17,14,32,27.50
2020,08,17,14,33,27.60
2020,08,17,14,34,27.70
2020,08,17,14,35,27.70
2020,08,17,14,36,27.90
2020,08,17,14,37,28.00
2020,08,17,14,38,27.90
2020,08,17,14,39,27.90
2020,08,17,14,40,28.00
2020,08,17,14,41,28.00
2020,08,17,14,42,28.00
2020,08,17,14,43,28.00
2020,08,17,14,44,28.10
2020,08,17,14,45,28.20
2020,08,17,14,46,28.30
2020,08,17,14,47,28.30
2020,08,17,14,48,28.40
2020,08,17,14,49,28.60
2020,08,17,14,50,28.70
2020,08,17,14,51,28.80
2020,08,17,14,52,28.80
2020,08,17,14,53,28.70
2020,08,17,14,54,28.60
2020,08,17,14,55,28.60
2020,08,17,14,56,28.60
2020,08,17,14,57,28.60
2020,08,17,14,58,28.70
2020,08,17,14,59,28.80
2020,08,17,15,00,28.80
2020,08,17,15,01,28.80
2020,08,17,15,02,28.80
2020,08,17,15,03,28.70
2020,08,17,15,04,28.70
2020,08,17,15,05,28.90
2020,08,17,15,06,28.90
2020,08,17,15,07,29.10
2020,08,17,15,08,29.20
2020,08,17,15,09,29.30
2020,08,17,15,10,29.30
2020,08,17,15,11,29.30
2020,08,17,15,12,29.10
2020,08,17,15,13,29.00
2020,08,17,15,14,28.90
2020,08,17,15,15,28.90
2020,08,17,15,16,29.00
2020,08,17,15,17,29.10
2020,08,17,15,18,29.20
2020,08,17,15,19,29.00
2020,08,17,15,20,28.90
2020,08,17,15,21,28.60
2020,08,17,15,22,28.50
2020,08,17,15,23,28.40
2020,08,17,15,24,28.60
2020,08,17,15,25,28.60
2020,08,17,15,26,28.70
2020,08,17,15,27,28.70
2020,08,17,15,28,28.70
2020,08,17,15,29,28.70
2020,08,17,15,30,28.80
2020,08,17,15,31,28.60
2020,08,17,15,32,28.60
2020,08,17,15,33,28.70
2020,08,17,15,34,28.80
2020,08,17,15,35,28.70
2020,08,17,15,36,28.70
2020,08,17,15,37,28.70
2020,08,17,15,38,28.70
2020,08,17,15,39,28.70
2020,08,17,15,40,28.70
2020,08,17,15,41,28.60
2020,08,17,15,42,28.50
2020,08,17,15,43,28.40
2020,08,17,15,44,28.20
2020,08,17,15,45,28.10
2020,08,17,15,46,28.10
2020,08,17,15,47,28.00
2020,08,17,15,48,27.90
2020,08,17,15,49,27.80
2020,08,17,15,50,27.80
2020,08,17,15,51,27.80
2020,08,17,15,52,27.80
2020,08,17,15,53,27.80
2020,08,17,15,54,27.80
2020,08,17,15,55,27.80
2020,08,17,15,56,28.00
2020,08,17,15,57,28.10
2020,08,17,15,58,28.20
2020,08,17,15,59,28.10
2020,08,17,16,00,28.00
2020,08,17,16,01,27.90
2020,08,17,16,02,27.90
2020,08,17,16,03,27.90
2020,08,17,16,04,27.80
2020,08,17,16,05,27.80
2020,08,17,16,06,27.80
2020,08,17,16,07,27.80
2020,08,17,16,08,27.70
2020,08,17,16,09,27.80
2020,08,17,16,10,27.80
2020,08,17,16,11,27.70
2020,08,17,16,12,27.70
2020,08,17,16,13,27.70
2020,08,17,16,14,27.70
2020,08,17,16,15,27.70
2020,08,17,16,16,27.70
2020,08,17,16,17,27.70
2020,08,17,16,18,27.70
2020,08,17,16,19,27.70
2020,08,17,16,20,27.70
2020,08,17,16,21,27.60
2020,08,17,16,22,27.60
2020,08,17,16,23,27.60
2020,08,17,16,24,27.60
2020,08,17,16,25,27.70
2020,08,17,16,26,27.70
2020,08,17,16,27,27.70
2020,08,17,16,28,27.70
2020,08,17,16,29,27.70
2020,08,17,16,30,27.70
2020,08,17,16,31,27.80
2020,08,17,16,32,27.90
2020,08,17,16,33,27.90
2020,08,17,16,34,28.00
2020,08,17,16,35,28.00
2020,08,17,16,36,27.90
2020,08,17,16,37,27.80
2020,08,17,16,38,27.70
2020,08,17,16,39,27.50
2020,08,17,16,40,27.40
2020,08,17,16,41,27.40
2020,08,17,16,42,27.40
2020,08,17,16,43,27.40
2020,08,17,16,44,27.50
2020,08,17,16,45,27.50
2020,08,17,16,46,27.70
2020,08,17,16,47,27.70
2020,08,17,16,48,27.80
2020,08,17,16,49,27.80
2020,08,17,16,50,27.70
2020,08,17,16,51,27.50
2020,08,17,16,52,27.50
2020,08,17,16,53,27.30
2020,08,17,16,54,27.20
2020,08,17,16,55,27.30
2020,08,17,16,56,27.40
2020,08,17,16,57,27.50
2020,08,17,16,58,27.70
2020,08,17,16,59,27.60
2020,08,17,17,00,27.50
2020,08,17,17,01,27.30
2020,08,17,17,02,27.10
2020,08,17,17,03,27.00
2020,08,17,17,04,26.90
2020,08,17,17,05,26.80
2020,08,17,17,06,26.80
2020,08,17,17,07,26.70
2020,08,17,17,08,26.70
2020,08,17,17,09,26.70
2020,08,17,17,10,26.60
2020,08,17,17,11,26.50
2020,08,17,17,12,26.50
2020,08,17,17,13,26.50
2020,08,17,17,14,26.60
2020,08,17,17,15,26.70
2020,08,17,17,16,26.80
2020,08,17,17,17,26.70
2020,08,17,17,18,26.70
2020,08,17,17,19,26.70